Regional Weather Roundup
Issued by NWS

Home | Current Version | Previous Version | Graphics & Text | Print | Product List | Glossary On
Versions: 1 2 3 4 5 6 7 8 9 10 11 12 13 14 15 16 17 18 19 20 21 22 23 24 25 26 27 28 29 30 31 32 33 34 35 36 37 38 39 40 41 42 43 44 45 46 47 48 49 50
242
ASUS43 KDMX 071503
RWRIA

WEATHER ROUNDUP FOR IOWA
NATIONAL WEATHER SERVICE DES MOINES IA
900 AM CST SUN FEB 07 2016

NOTE: "FAIR" INDICATES FEW OR NO CLOUDS BELOW 12,000 FEET WITH NO
SIGNIFICANT WEATHER AND/OR OBSTRUCTIONS TO VISIBILITY.

* - THESE STATIONS ARE NOT NWS STATIONS...THUS NOT UNDER NWS
QUALITY CONTROL.  THEY ALSO DO NOT REPORT WEATHER SUCH
AS PRECIPITATION OR FOG.

IAZ001>003-012>014-020>022-031>034-043>046-071600-
   NORTHWEST IOWA

CITY           SKY/WX    TMP DP  RH WIND       PRES   REMARKS
CARROLL *      PTSUNNY   36  27  69 W22       29.89R WCI  24
CHEROKEE *     CLOUDY    36  28  75 W15G23    29.87S WCI  26
DENISON *      PTSUNNY   36  25  64 W16G23    29.90S WCI  26
LE MARS *      SUNNY     36  30  80 W14G21    29.91R WCI  27
ORANGE CITY *  SUNNY     34  28  80 W18       29.87R WCI  23
SHELDON *      SUNNY     34  28  80 W21       29.83S WCI  22
SIOUX CITY     PTSUNNY   38  25  59 NW14      29.93R WCI  30
SPENCER        CLOUDY    35  26  69 W25       29.82S WCI  23
STORM LAKE *   SUNNY     32  28  86 W21       29.87S WCI  20
$$

IAZ055>058-069>071-079>083-090>094-071600-
   SOUTHWEST IOWA

CITY           SKY/WX    TMP DP  RH WIND       PRES   REMARKS
ATLANTIC *     SUNNY     36  25  64 NW14      29.94S WCI  27
AUDUBON *      SUNNY     36  27  69 W12G17    29.92S WCI  27
CLARINDA *     SUNNY     39  28  65 W7G13     30.01R WCI  34
COUNCIL BLFS * SUNNY     39  23  52 W12       29.97R WCI  32
CRESTON *      SUNNY     36  28  75 W10G16    29.95R WCI  28
HARLAN  *      SUNNY     34  25  69 NW15G21   29.97R WCI  24
LAMONI         MOSUNNY   36  28  73 W15       29.94R WCI  27
RED OAK *      SUNNY     37  28  70 VRB3      29.98S
SHENANDOAH *   SUNNY     36  32  87 SW8       30.01S WCI  29
$$

IAZ047>049-059>061-072>074-084-071600-
   CENTRAL IOWA

CITY           SKY/WX    TMP DP  RH WIND       PRES   REMARKS
AMES           SUNNY     34  26  72 W15       29.86R WCI  24
ANKENY *       SUNNY     37  28  70 W14G22    29.88S WCI  29
BOONE *        SUNNY     36  27  69 W16G22    29.85S WCI  26
CHARITON *     CLOUDY    37  28  70 W14       29.90R WCI  29
DES MOINES     MOSUNNY   39  26  59 NW17      29.89R WCI  30
GRINNELL*      SUNNY     36  29  76 W15       29.85S WCI  26
KNOXVILLE *    SUNNY     37  28  70 W13       29.87R WCI  29
MARSHALLTOWN   SUNNY     35  26  69 W15       29.82S WCI  25
NEWTON *       MIX PCPN  36  30  80 W13       29.86R WCI  27
PELLA *        SUNNY     37  28  70 W10       29.89R WCI  30
$$

IAZ004>006-015-016-023>025-035-036-071600-
   NORTH CENTRAL IOWA

CITY           SKY/WX    TMP DP  RH WIND       PRES   REMARKS
ALGONA *       MOSUNNY   34  27  75 W18       29.80S WCI  23
CLARION *      MOSUNNY   32  25  74 W16       29.82R WCI  21
ESTHERVILLE    CLOUDY    34  27  75 W28G35    29.78S WCI  21
FORT DODGE *   MOSUNNY   36  25  64 W9        29.86R WCI  29
MASON CITY     SUNNY     32  25  75 W17       29.77S WCI  21
FOREST CITY *  SUNNY     32  25  74 W9        29.77S WCI  24
WEBSTER CITY * MOSUNNY   28  25  86 W12       29.83R WCI  18
IOWA FALLS *     N/A     33  27  79 W18       29.82S WCI  22
$$

IAZ007>011-017>019-026>030-037>042-050>054-066-071600-
   NORTHEAST IOWA

CITY           SKY/WX    TMP DP  RH WIND       PRES   REMARKS
CEDAR RAPIDS   SUNNY     36  31  82 W12       29.80S WCI  28
CHARLES CITY * SUNNY     32  28  86 W14       29.76S WCI  22
CLINTON *      CLOUDY    36  30  79 W14       29.80F WCI  27
DECORAH *      MOSUNNY   34  27  75 W9        29.72S WCI  26
DUBUQUE        SUNNY     33  28  81 W14       29.76S WCI  23
MONTICELLO *   SUNNY     34  30  86 W7        29.79R WCI  28
OELWEIN *      SUNNY     30  27  86 W13       29.78S WCI  20
WATERLOO       SUNNY     34  25  69 W13       29.79S WCI  25
$$

IAZ064-065-067-068-078-071600-
   EAST CENTRAL IOWA

CITY           SKY/WX    TMP DP  RH WIND       PRES   REMARKS
DAVENPORT      CLOUDY    37  28  70 SW15      29.81S WCI  28
IOWA CITY      CLOUDY    36  29  75 W9        29.85R WCI  29
MT. PLEASANT * CLOUDY    39  30  70 W12       29.87R WCI  32
MUSCATINE *    PTSUNNY   39  28  65 W10       29.85S WCI  32
QUAD CITIES    CLOUDY    39  28  64 SW18G26   29.81F WCI  30
$$

IAZ062-063-075>077-085>089-095>099-071600-
   SOUTHEAST IOWA

CITY           SKY/WX    TMP DP  RH WIND       PRES   REMARKS
BURLINGTON     CLOUDY    38  29  70 W13       29.85F WCI  30
FAIRFIELD *    CLOUDY    37  28  70 W12       29.86S WCI  30
FORT MADISON * SUNNY     37  28  70 SW10G16   29.87F WCI  30
KEOKUK *       CLOUDY    41  30  65 W14       29.87S
OSKALOOSA *      N/A     34  30  86 W13       29.87S WCI  25
OTTUMWA        CLOUDY    38  29  70 W10       29.87R WCI  31
WASHINGTON *   CLOUDY    37  30  75 W13       29.86S WCI  29
$$

ABBREVIATIONS USED IN REMARKS
   TC - TEMPERATURES IN CELSIUS
  WCI - WIND CHILL INDEX
   HX - HEAT INDEX
  VSB - VISIBILITY
$$





USA.gov is the U.S. government's official web portal to all federal, state and local government web resources and services.